User: anonymous   Login
Location: Hopkins Observatory
(42.6965°N, 73.1843°W)
Time: 01:54:25
(UTC-04:00)
Language:

UOSAT-12 - Orbit

View from above orbital plane
View from above orbital plane
View from above satellite
View from above satellite

Ground track
Ground track

The orbit data is extracted from the following two-line orbital elements,

1 25693U 99021A   16148.53879880 -.00000025  00000-0  15235-4 0  9992
2 25693  64.5564 234.1610 0008933 214.6871 145.3653 14.80652658923068
Epoch (UTC): 27 May 2016 12:55:52
Eccentricity: 0.0008933
inclination: 64.5564°
perigee height: 621 km
apogee height: 633 km
right ascension of ascending node: 234.1610°
argument of perigee: 214.6871°
revolutions per day: 14.80652658
mean anomaly at epoch: 145.3653°
orbit number at epoch: 92306

The dashed part of the orbit path shows where the satellite is in the earth's shadow,  

DLR